This is the latest recevied weather packets stored in our database for station/object W0SS-13. If no packets are shown the sender has not sent any weather packets the latest 10 day(s).
| Time | Temp. | Humidity | Pressure | Rain* | Wind** | Luminosity | Snow |
|---|---|---|---|---|---|---|---|
| 1777770519 | 15° C | 41% | 1019.3 hPa | 0 mm | - | 6 W/m² | - |
| 1777770211 | 15.56° C | 41% | 1019.6 hPa | 0 mm | - | 8 W/m² | - |
| 1777769907 | 16.11° C | 37% | 1019.4 hPa | 0 mm | - | 12 W/m² | - |
| 1777769605 | 16.11° C | 37% | 1019.6 hPa | 0 mm | - | 15 W/m² | - |
| 1777769301 | 16.67° C | 37% | 1019.6 hPa | 0 mm | - | 19 W/m² | - |
| 1777768999 | 16.67° C | 37% | 1019.7 hPa | 0 mm | - | 24 W/m² | - |
| 1777768696 | 16.67° C | 37% | 1019.4 hPa | 0 mm | - | 28 W/m² | - |
| 1777768393 | 16.67° C | 36% | 1019.5 hPa | 0 mm | - | 33 W/m² | - |
| 1777768090 | 16.67° C | 34% | 1019.7 hPa | 0 mm | - | 39 W/m² | - |
| 1777767787 | 16.67° C | 36% | 1019.7 hPa | 0 mm | - | 45 W/m² | - |
| 1777767484 | 17.22° C | 35% | 1019.7 hPa | 0 mm | - | 52 W/m² | - |
| 1777767180 | 17.22° C | 34% | 1019.8 hPa | 0 mm | - | 60 W/m² | - |
| 1777766877 | 17.22° C | 36% | 1019.7 hPa | 0 mm | - | 69 W/m² | - |
| 1777766574 | 17.22° C | 34% | 1019.5 hPa | 0 mm | - | 79 W/m² | - |
| 1777766272 | 17.22° C | 35% | 1019.7 hPa | 0 mm | - | 89 W/m² | - |
| 1777765969 | 17.22° C | 34% | 1019.6 hPa | 0 mm | - | 100 W/m² | - |
| 1777765665 | 17.22° C | 34% | 1019.5 hPa | 0 mm | - | 111 W/m² | - |
| 1777765363 | 17.22° C | 33% | 1019.7 hPa | 0 mm | - | 123 W/m² | - |
| 1777765058 | 17.22° C | 35% | 1019.6 hPa | 0 mm | - | 136 W/m² | - |
| 1777764755 | 17.22° C | 32% | 1019.6 hPa | 0 mm | - | 149 W/m² | - |
| 1777764451 | 17.78° C | 31% | 1019.7 hPa | 0 mm | - | 164 W/m² | - |
| 1777764148 | 17.78° C | 32% | 1019.7 hPa | 0 mm | - | 177 W/m² | - |
| 1777763845 | 17.22° C | 32% | 1019.8 hPa | 0 mm | - | 193 W/m² | - |
| 1777763543 | 17.22° C | 34% | 1020 hPa | 0 mm | - | 207 W/m² | - |
| 1777763242 | 17.78° C | 35% | 1020 hPa | 0 mm | - | 223 W/m² | - |
* Rain latest hour (hover to see other rain measurements)
** Current wind speed in m/s (hover to see current wind gust speed)